[TLELIST] Archives

 

Current TLEs

December 28th 2006 PDT

HST 1 20580U 90037B 06360.97037811 +.00000447 +00000-0 +21914-4 0 07898 2 20580 028.4678 233.0642 0003658 070.6509 289.4477 15.00166073714070 ISS (ZARYA) 1 25544U 98067A 06362.33647111 .00015605 00000-0 98630-4 0 3400 2 25544 051.6358 266.6053 0023737 027.9262 074.6745 15.76451275463793 CXO 1 25867U 99040B 06360.79166667 +.00000445 +00000-0 +00000-0 0 00166 2 25867 060.8650 093.0048 6005095 287.1147 359.8916 00.37807665001604 ____________________________________________________________________ These 2-Line ...Continue Reading

Current TLEs

December 27th 2006 PDT

HST 1 20580U 90037B 06361.03690661 .00000446 00000-0 21869-4 0 7690 2 20580 028.4678 232.6305 0003658 071.3679 288.7306 15.00166106714088 ISS (ZARYA) 1 25544U 98067A 06361.19343537 .00019735 00000-0 12368-3 0 3342 2 25544 051.6365 272.4947 0023897 023.2831 068.0321 15.76422487463617 CXO 1 25867U 99040B 06360.79166667 +.00000445 +00000-0 +00000-0 0 00166 2 25867 060.8650 093.0048 6005095 287.1147 359.8916 00.37807665001604 ____________________________________________________________________ These 2-Line ...Continue Reading

Current TLEs

December 26th 2006 PDT

HST 1 20580U 90037B 06359.90592087 .00000468 00000-0 23625-4 0 7681 2 20580 028.4681 240.0046 0003617 059.2970 300.7971 15.00165639713915 ISS (ZARYA) 1 25544U 98067A 06360.18856970 .00021594 00000-0 13515-3 0 3295 2 25544 051.6358 277.6751 0023684 019.6589 125.1559 15.76388053463452 CXO 1 25867U 99040B 06358.12500000 +.00000471 +00000-0 +00000-0 0 00151 2 25867 060.8456 093.0652 6000415 287.1263 356.9251 00.37805549001596 ____________________________________________________________________ These 2-Line ...Continue Reading

Current TLEs

December 25th 2006 PDT

HST 1 20580U 90037B 06357.97659043 +.00000562 +00000-0 +30914-4 0 07798 2 20580 028.4683 252.5811 0003646 039.0966 320.9891 15.00165045713622 ISS (ZARYA) 1 25544U 98067A 06359.35614703 .00022512 00000-0 14087-3 0 3250 2 25544 051.6367 281.9631 0023846 016.0716 081.6189 15.76355071463325 CXO 1 25867U 99040B 06358.12500000 +.00000471 +00000-0 +00000-0 0 00151 2 25867 060.8456 093.0652 6000415 287.1263 356.9251 00.37805549001596 ____________________________________________________________________ These 2-Line ...Continue Reading

Current TLEs

December 24th 2006 PDT

HST 1 20580U 90037B 06358.04311905 .00000561 00000-0 30865-4 0 7670 2 20580 028.4683 252.1469 0003662 040.1754 319.9107 15.00165095713637 ISS (ZARYA) 1 25544U 98067A 06358.40614704 .00023082 00000-0 14460-3 0 3197 2 25544 051.6371 286.8611 0023776 012.7281 090.2660 15.76313585463171 CXO 1 25867U 99040B 06358.12500000 +.00000471 +00000-0 +00000-0 0 00151 2 25867 060.8456 093.0652 6000415 287.1263 356.9251 00.37805549001596 ____________________________________________________________________ These 2-Line ...Continue Reading

Current TLEs

December 23rd 2006 PDT

HST 1 20580U 90037B 06355.91419999 +.00000674 +00000-0 +39704-4 0 07671 2 20580 028.4691 266.0266 0003523 017.0547 343.0159 15.00164242713317 ISS (ZARYA) 1 25544U 98067A 06356.51435185 .00024090 00000-0 15130-3 0 3084 2 25544 051.6377 296.6087 0023725 005.4865 155.1358 15.76226297462878 CXO 1 25867U 99040B 06355.50000000 +.00000470 +00000-0 +00000-0 0 00143 2 25867 060.8318 093.1206 5994907 287.1634 359.5733 00.37802925001586 ____________________________________________________________________ These 2-Line ...Continue Reading

Current TLEs

December 22nd 2006 PDT

HST 1 20580U 90037B 06355.84767083 .00000695 00000-0 41386-4 0 7653 2 20580 028.4691 266.4608 0003490 015.6648 344.4047 15.00164374713306 ISS (ZARYA) 1 25544U 98067A 06356.37552241 .00026395 00000-0 16540-3 0 3065 2 25544 051.6373 297.3224 0023575 005.5192 086.7967 15.76221988462857 CXO 1 25867U 99040B 06355.50000000 +.00000470 +00000-0 +00000-0 0 00143 2 25867 060.8318 093.1206 5994907 287.1634 359.5733 00.37802925001586 ____________________________________________________________________ These 2-Line ...Continue Reading

Current TLEs

December 21st 2006 PDT

HST 1 20580U 90037B 06353.91833759 +.00000622 +00000-0 +35638-4 0 07768 2 20580 028.4691 279.0435 0003310 354.1473 005.9076 15.00162342713014 ISS (ZARYA) 1 25544U 98067A 06355.36940356 .00022220 00000-0 14038-3 0 3019 2 25544 051.6365 302.5058 0023621 001.4785 137.9297 15.76153315462692 CXO 1 25867U 99040B 06352.87500000 +.00000471 +00000-0 +00000-0 0 00135 2 25867 060.8173 093.1624 5989394 287.2329 002.1772 00.37802755001579 ____________________________________________________________________ These 2-Line ...Continue Reading

Current TLEs

December 20th 2006 PDT

HST 1 20580U 90037B 06354.11792330 .00000761 00000-0 46551-4 0 7647 2 20580 028.4690 277.7386 0003426 355.7887 004.2672 15.00163078713041 ISS (ZARYA) 1 25544U 98067A 06354.35451549 .00019777 00000-0 12583-3 0 2945 2 25544 051.6365 307.7366 0023389 358.0432 138.8872 15.76094107462537 CXO 1 25867U 99040B 06352.87500000 +.00000471 +00000-0 +00000-0 0 00135 2 25867 060.8173 093.1624 5989394 287.2329 002.1772 00.37802755001579 ____________________________________________________________________ These 2-Line ...Continue Reading

Current TLEs

December 19th 2006 PDT

HST 1 20580U 90037B 06352.85387607 .00000884 00000-0 56139-4 0 7631 2 20580 028.4691 285.9811 0003402 342.6636 017.3834 15.00162514712854 ISS (ZARYA) 1 25544U 98067A 06353.14498317 .00015255 00000-0 98267-4 0 2878 2 25544 051.6360 313.9667 0023744 351.9925 117.5926 15.76039627462348 CXO 1 25867U 99040B 06352.87500000 +.00000471 +00000-0 +00000-0 0 00135 2 25867 060.8173 093.1624 5989394 287.2329 002.1772 00.37802755001579 ____________________________________________________________________ These 2-Line ...Continue Reading
  • This mailing list is a public mailing list - anyone may join or leave, at any time.
  • This mailing list is announce-only.

International Space Station (ISS) / Hubble Space Telescope (HST) / Chandra X-Ray Observatory Orbital Data via EMAIL

Privacy Policy:

Private list